Location: Altenhof
(50.2418°N, 10.8789°E)
Time: 10:50:47
(UTC+00:00)

STARLINK-1114 - Pass Details

Date: 18 February 2020
Orbit: 548 x 551 km, 53.0° (Epoch: 05 April)

Event Time Altitude Azimuth Distance (km) Brightness Sun altitude
Exits shadow 04:15:48 - 183° (S) 2,274 6.7 -21.0°
Reaches altitude 10° 04:17:26 10° 168° (SSE) 1,826 6.3 -20.7°
Drops below altitude 10° 04:22:16 10° 97° (E) 1,835 7.4 -19.9°
Enters shadow 05:20:16 -69° 242° (WSW) 12,471 10.4 -10.7°
Maximum altitude 05:58:48 60° 151° (SSE) 638 4.2 -4.6°
